This is the latest recevied weather packets stored in our database for station/object K7AZM. If no packets are shown the sender has not sent any weather packets the latest 10 day(s).
| Time | Temp. | Humidity | Pressure | Rain* | Wind** | Luminosity | Snow |
|---|---|---|---|---|---|---|---|
| 1777852523 | 34.44° C | 12% | 1007.8 hPa | 0 mm | - | - | - |
| 1777851043 | 33.89° C | 12% | 1007.6 hPa | 0 mm | - | - | - |
| 1777849523 | 35° C | 13% | 1007.8 hPa | 0 mm | - | - | - |
| 1777848924 | 34.44° C | 13% | 1008.1 hPa | 0 mm | - | - | - |
| 1777847723 | 35.56° C | 12% | 1008.8 hPa | 0 mm | - | - | - |
| 1777846823 | 35.56° C | 12% | 1008.8 hPa | 0 mm | - | - | - |
| 1777846223 | 35.56° C | 12% | 1009 hPa | 0 mm | - | - | - |
| 1777845624 | 35.56° C | 12% | 1009.2 hPa | 0 mm | - | - | - |
| 1777842924 | 35° C | 15% | 1009.9 hPa | 0 mm | - | - | - |
| 1777842043 | 34.44° C | 15% | 1010.2 hPa | 0 mm | - | - | - |
| 1777841745 | 35° C | 15% | 1010.3 hPa | 0 mm | - | - | - |
| 1777839624 | 33.89° C | 19% | 1010.9 hPa | 0 mm | - | - | - |
| 1777836623 | 33.33° C | 18% | 1011.7 hPa | 0 mm | - | - | - |
| 1777835723 | 32.22° C | 18% | 1011.9 hPa | 0 mm | - | - | - |
| 1777832463 | 32.22° C | 20% | 1012.7 hPa | 0 mm | - | - | - |
| 1777830923 | 31.11° C | 22% | 1012.9 hPa | 0 mm | - | - | - |
| 1777829725 | 30° C | 24% | 1012.9 hPa | 0 mm | - | - | - |
| 1777829123 | 29.44° C | 25% | 1013.1 hPa | 0 mm | - | - | - |
| 1777828223 | 29.44° C | 26% | 1013.2 hPa | 0 mm | - | - | - |
| 1777827623 | 29.44° C | 26% | 1013.4 hPa | 0 mm | - | - | - |
| 1777825223 | 28.33° C | 28% | 1013.5 hPa | 0 mm | - | - | - |
| 1777821623 | 27.22° C | 29% | 1013 hPa | 0 mm | - | - | - |
| 1777820723 | 26.67° C | 29% | 1013.1 hPa | 0 mm | - | - | - |
| 1777819223 | 26.11° C | 29% | 1013.1 hPa | 0 mm | - | - | - |
| 1777818624 | 26.11° C | 30% | 1013 hPa | 0 mm | - | - | - |
* Rain latest hour (hover to see other rain measurements)
** Current wind speed in m/s (hover to see current wind gust speed)